Location: Hains Lake
(37.8540°N, 99.8578°W)
Time: 22:01:42
(UTC+00:00)

Explorer 7 - Pass Details

Date: 23 April 2021
Orbit: 484 x 677 km, 50.3° (Epoch: 13 May)

Event Time Altitude Azimuth Distance (km) Brightness Sun altitude
Rises 03:05:51 0° 280° (W) 2,635 11.5 -19.3°
Reaches altitude 10° 03:08:31 10° 299° (WNW) 1,783 10.6 -19.7°
Maximum altitude 03:11:28 19° 346° (NNW) 1,345 9.4 -20.2°
Drops below altitude 10° 03:14:32 10° 32° (NNE) 1,870 9.6 -20.7°
Enters shadow 03:16:42 - 47° (NE) 2,560 10.1 -21.0°
